User: anonymous   Login
Location: Tyler Bend Campground
(35.9875°N, 92.7606°W)
Time: 11:41:20
(UTC-05:00)
Language:

Iridium 39 - Orbit

View from above orbital plane
View from above orbital plane
View from above satellite
View from above satellite

Ground track
Ground track

The orbit data is extracted from the following two-line orbital elements,

1 25042U 97069D   14302.10392734  .00000755  00000-0  26273-3 0   286
2 25042 086.3984 064.2994 0002439 108.6933 251.4528 14.34208658888412
Epoch (UTC): 29 October 2014 02:29:39
Eccentricity: 0.0002439
inclination: 86.3984°
perigee height: 776 km
apogee height: 779 km
right ascension of ascending node: 64.2994°
argument of perigee: 108.6933°
revolutions per day: 14.34208658
mean anomaly at epoch: 251.4528°
orbit number at epoch: 88841

The dashed part of the orbit path shows where the satellite is in the earth's shadow,  

DLR